sat.trackr.live / text

‹ back to catalog

QIANFAN-219

NORAD 69848 · 2026-155A

PAYLOAD ACTIVE UNKNOWN

§ Identity

Operator
Country
PRC
Launch date
2026-07-05
Launch site
WSC
Launch vehicle
Mass (kg)
RCS (m²)

External: N2YO · Heavens-Above · Gunter

§ Orbital elements

Epoch: 2026-09-20T03:59:09.496032Z

Period
106.39 min
Inclination
89.0086°
Eccentricity
0.0037136
Mean motion
13.53480374 rev/d
Perigee alt
1,031.9 km
Apogee alt
1,087.1 km
Semi-major
7,437.6 km
B*
1.8723e-4
RAAN
53.7331°
Arg perigee
11.4274°
Mean anomaly
348.7713°
Rev number
1,069

§ Raw data

QIANFAN-2191 69848U 26155A   26263.16608213  .00000138  00000+0  18723-3 0  99952 69848  89.0086  53.7331 0037136  11.4274 348.7713 13.53480374 10696

JSON: /api/v1/satellites/69848 · /tle

For live sub-satellite position, see the globe view (requires WebGL).

§ Visibility from observer

Set your observer location to see the next 7 days of passes ≥ 10°. The values pass through the URL so the page stays shareable.

No JS? Fill the form by hand. The geolocation button needs JavaScript.